This is the latest recevied weather packets stored in our database for station/object HARMALA. If no packets are shown the sender has not sent any weather packets the latest 10 day(s).
| Time | Temp. | Humidity | Pressure | Rain* | Wind** | Luminosity | Snow |
|---|---|---|---|---|---|---|---|
| 1777344404 | 0° C | 68% | 1019.5 hPa | 0 mm | - | - | - |
| 1777343204 | 0° C | 68% | 1019.4 hPa | 0 mm | - | - | - |
| 1777342004 | 0.56° C | 67% | 1019.3 hPa | 0 mm | - | - | - |
| 1777340803 | 0.56° C | 66% | 1019.3 hPa | 0 mm | - | - | - |
| 1777339604 | 0.56° C | 65% | 1019.2 hPa | 0 mm | - | - | - |
| 1777338403 | 0.56° C | 64% | 1019.1 hPa | 0 mm | - | - | - |
| 1777337204 | 0.56° C | 64% | 1019 hPa | 0 mm | - | - | - |
| 1777336003 | 1.11° C | 61% | 1019 hPa | 0 mm | - | - | - |
| 1777334803 | 1.11° C | 60% | 1018.9 hPa | 0 mm | - | - | - |
| 1777333604 | 1.11° C | 58% | 1018.8 hPa | 0 mm | - | - | - |
| 1777332404 | 1.67° C | 56% | 1018.7 hPa | 0 mm | - | - | - |
| 1777331203 | 1.67° C | 55% | 1018.6 hPa | 0 mm | - | - | - |
| 1777330003 | 1.67° C | 52% | 1018.6 hPa | 0 mm | - | - | - |
| 1777328803 | 2.22° C | 51% | 1018.5 hPa | 0 mm | - | - | - |
| 1777327603 | 2.22° C | 51% | 1018.5 hPa | 0 mm | - | - | - |
| 1777326403 | 2.22° C | 51% | 1018.4 hPa | 0 mm | - | - | - |
| 1777325203 | 2.22° C | 51% | 1018.3 hPa | 0 mm | - | - | - |
| 1777324003 | 2.22° C | 51% | 1018.4 hPa | 0 mm | - | - | - |
| 1777322803 | 2.78° C | 51% | 1018.3 hPa | 0 mm | - | - | - |
| 1777321603 | 3.33° C | 46% | 1018.1 hPa | 0 mm | - | - | - |
| 1777320402 | 3.33° C | 47% | 1018.1 hPa | 0 mm | - | - | - |
| 1777319202 | 3.33° C | 48% | 1018 hPa | 0 mm | - | - | - |
| 1777318002 | 3.89° C | 49% | 1017.9 hPa | 0 mm | - | - | - |
| 1777316802 | 3.89° C | 49% | 1017.8 hPa | 0 mm | - | - | - |
| 1777315602 | 3.89° C | 48% | 1017.7 hPa | 0 mm | - | - | - |
* Rain latest hour (hover to see other rain measurements)
** Current wind speed in m/s (hover to see current wind gust speed)